#timestamp,LO_Frequency,Hit 
1499335215.7,286046936.1,N
1499335235.6,286046936.5,N
1499335255.4,286046936.8,N
1499335275.2,286046934.4,N
1499335295.1,286046936.7,N
1499335296.0,286046936.7,N
1499335315.8,286046934.3,N
1499335335.6,286046933.1,N
1499335355.5,286046931.3,N
1499335375.3,286046931.7,N
1499335395.1,286046931.9,N
1499335415.9,286046932.4,N
1499335435.7,286046929.6,N
1499335455.5,286046929.7,N
1499335475.3,286046929.5,N
1499335495.2,286046929.6,N
1499335515.0,286046928.1,N
1499335515.9,286046928.1,N
1499335535.7,286046928.2,N
1499335555.6,286046927.8,N
1499335575.4,286046928.2,N
1499335595.2,286046928.0,N
1499335615.1,286046928.3,N
1499335616.0,286046928.3,N
1499335635.8,286046928.1,N
1499335655.6,286046928.3,N
1499335675.5,286046926.2,N
1499335695.3,286046926.1,N
1499335715.1,286046927.4,N
1499335735.9,286046926.8,N
1499335755.7,286046926.8,N
1499335775.5,286046926.9,N
1499335795.4,286046927.4,N
1499335815.2,286046927.0,N
1499335835.0,286046927.1,N
1499335835.9,286046927.1,N
1499335855.8,286046925.4,N
1499335875.6,286046925.2,N
1499335895.4,286046924.8,N
1499335915.2,286046925.9,N
1499335935.1,286046923.6,N
1499335936.0,286046923.6,N
1499335955.8,286046923.6,N
1499335975.6,286046923.1,N
1499335995.5,286046921.3,Y
1499336015.3,286046969.0,N
1499336035.1,286046966.7,N
1499336055.9,286046966.9,N
1499336075.7,286046964.5,N
1499336095.5,286046967.5,N
1499336115.4,286046964.7,N
1499336135.2,286046965.5,N
1499336155.0,286046962.9,N
1499336155.9,286046962.9,N
1499336175.8,286046963.6,N
1499336195.6,286046963.4,N
1499336215.4,286046963.0,N
1499336235.3,286046963.3,N
1499336255.1,286046964.1,N
1499336256.0,286046964.1,N
1499336275.8,286046963.8,N
1499336295.7,286046961.3,N
1499336315.5,286046964.0,N
1499336335.3,286046962.0,N
1499336355.2,286046961.4,N
1499336375.9,286046962.0,N
1499336395.7,286046959.7,N
1499336415.5,286046960.4,N
1499336435.4,286046960.3,N
1499336455.2,286046958.2,N
1499336475.0,286046958.5,N
1499336475.9,286046958.5,N
1499336495.8,286046958.5,N
1499336515.6,286046959.1,N
1499336535.4,286046959.2,N
1499336555.3,286046958.1,N
1499336575.1,286046960.6,N
1499336576.0,286046960.6,N
1499336595.8,286046958.8,N
1499336615.7,286046957.1,N
1499336635.5,286046956.5,N
1499336655.3,286046959.4,N
1499336675.2,286046956.6,N
1499336695.9,286046955.1,N
1499336715.7,286046957.6,N
1499336735.6,286046955.4,N
1499336755.4,286046955.7,N
1499336775.2,286046955.6,N
1499336795.1,286046953.7,N
1499336796.0,286046953.7,N
1499336815.8,286046954.1,N
1499336835.6,286046954.6,N
1499336855.4,286046953.4,N
1499336875.3,286046956.2,N
1499336895.1,286046954.5,N
1499336915.8,286046952.4,N
1499336935.7,286046952.5,N
1499336955.5,286046953.1,N
1499336975.3,286046953.1,N
1499336995.2,286046950.8,N
1499337015.0,286046950.8,N
1499337015.9,286046950.8,N
1499337035.7,286046952.9,N
1499337055.6,286046950.3,N
1499337075.4,286046950.7,N
1499337095.2,286046948.5,N
1499337115.1,286046949.2,N
1499337116.0,286046949.2,N
1499337135.8,286046948.9,N
1499337155.6,286046949.2,N
1499337175.5,286046949.5,N
1499337195.3,286046947.0,N
1499337215.1,286046948.0,N
1499337235.9,286046948.3,N
1499337255.7,286046945.4,N
1499337275.5,286046946.3,N
1499337295.3,286046943.7,N
1499337315.2,286046943.8,N
1499337335.0,286046944.0,N
1499337335.9,286046944.0,N
1499337355.7,286046945.0,N
1499337375.6,286046943.0,N
1499337395.4,286046943.3,N
1499337415.2,286046943.4,N
1499337435.1,286046943.6,N
1499337436.0,286046943.6,N
1499337455.8,286046940.5,N
1499337475.6,286046941.1,N
1499337495.5,286046940.6,N
1499337515.3,286046941.1,N
1499337535.1,286046939.0,N
1499337555.9,286046937.3,N
1499337575.7,286046940.0,N
1499337595.5,286046940.3,N
1499337615.4,286046938.6,N
1499337635.2,286046938.6,N
1499337655.0,286046935.7,N
1499337655.9,286046935.7,N
1499337675.8,286046935.8,N
1499337695.6,286046936.5,N
1499337715.4,286046934.1,N
1499337735.2,286046934.2,N
1499337755.1,286046932.9,Y
1499337756.0,286046932.9,Y
1499337775.8,286047034.0,N
1499337795.7,286047034.1,N
1499337815.5,286047034.7,N
1499337835.3,286047034.8,N
1499337855.2,286047032.0,N
1499337875.9,286047033.0,N
1499337895.7,286047031.9,N
1499337915.5,286047031.9,N
1499337935.4,286047030.6,N
1499337955.2,286047031.2,N
1499337975.0,286047028.8,N
1499337975.9,286047028.8,N
1499337995.8,286047029.2,N
1499338015.6,286047027.0,N
1499338035.4,286047027.4,N
1499338055.3,286047027.6,N
1499338075.1,286047027.8,N
1499338076.0,286047027.8,N
1499338095.8,286047027.9,N
1499338115.7,286047025.3,N
1499338135.5,286047025.5,N
1499338155.3,286047025.5,N
1499338175.2,286047026.6,N
1499338195.9,286047026.4,N
1499338215.7,286047026.6,N
1499338235.5,286047023.9,N
1499338255.4,286047022.1,N
1499338275.2,286047025.2,N
1499338295.0,286047024.9,N
1499338295.9,286047024.9,N
1499338315.8,286047022.6,N
1499338335.6,286047020.5,N
1499338355.4,286047023.3,N
1499338375.3,286047022.7,N
1499338395.1,286047023.6,N
1499338415.8,286047023.6,N
1499338435.7,286047021.8,N
1499338455.5,286047021.6,N
1499338475.3,286047019.6,N
1499338495.2,286047019.7,N
1499338515.9,286047019.7,N
1499338535.7,286047019.9,N
1499338555.6,286047017.5,N
1499338575.4,286047020.4,N
1499338595.2,286047017.5,N
1499338615.0,286047017.9,N
1499338616.0,286047017.9,N
1499338635.8,286047018.2,N
1499338655.6,286047017.9,N
1499338675.4,286047017.8,N
1499338695.3,286047015.7,N
1499338715.1,286047016.6,N
1499338735.8,286047015.0,N
1499338755.7,286047015.3,N
1499338775.5,286047014.7,N
1499338795.3,286047015.1,N
